Dewpoint
46 47 49 50 50 52 54 55 56 57 57 57 57 57 57 56 57 57 56 57 57 57 57 58 58 58 58 58 58 58 58 58 58 58 57 57 57 57 57 57 57 57 56 56 57 56 56 56 55 56 56 55 55 55 55 55 54 54 54 53 54 53 54 54 53 52 49 42 46 46 46 45 42 41 40 38 35 36 37 37 37 37 38 39 39
46 47 47 49 50 51 53 54 56 56 56 57 57 57 56 57 57 56 57 57 57 57 57 58 58 58 58 58 58 58 58 58 58 58 57 57 57 57 57 57 57 57 57 56 56 57 56 56 56 56 56 56 56 55 55 55 55 55 55 54 55 54 54 54 53 53 52 41 41 39 41 42 42 39 39 36 35 35 37 37 37 37 37 38 39
46 46 47 48 49 51 52 53 54 55 55 55 55 56 56 56 56 56 57 56 57 57 57 57 57 57 57 57 58 58 58 58 58 57 57 57 56 57 57 56 56 56 56 56 56 56 56 56 56 56 56 56 55 56 55 55 55 55 55 55 54 55 54 55 54 52 52 48 44 42 40 39 41 38 38 36 35 36 37 38 38 37 36 36 36
45 46 47 48 49 50 51 51 52 53 54 55 54 54 55 55 56 56 56 56 56 57 57 57 57 57 57 56 56 57 56 57 56 57 57 56 56 56 56 56 57 56 56 56 56 56 56 56 56 55 55 55 55 55 55 55 55 55 54 55 55 55 55 54 54 54 52 52 41 45 41 39 37 38 38 36 34 34 35 35 35 35 34 34 33
43 44 44 45 46 47 47 48 49 50 51 51 51 51 52 54 55 55 55 55 56 55 56 55 56 56 57 56 56 56 56 56 56 56 56 56 56 56 56 56 57 57 57 56 53 56 56 56 56 55 55 55 55 55 55 54 54 54 54 54 54 54 54 54 54 54 53 51 43 38 37 36 33 35 36 35 33 33 33 34 35 34 32 31 30
42 42 42 43 44 44 45 46 47 48 49 49 50 51 52 53 53 55 55 56 54 54 55 54 55 54 54 55 55 55 54 54 55 55 55 55 56 56 56 56 56 57 57 56 56 56 56 56 55 55 55 54 54 54 54 54 54 54 54 54 54 54 53 52 53 52 52 52 46 37 35 36 32 32 34 35 34 33 32 31 31 30 30 29 28
41 41 40 41 41 42 43 45 46 47 47 47 48 49 49 49 50 51 50 51 51 51 50 51 51 52 53 54 54 54 55 54 55 55 55 55 55 55 55 55 55 56 56 56 56 56 56 56 55 55 55 55 54 54 54 53 54 53 53 53 53 52 51 51 50 50 50 49 46 43 38 34 35 34 32 34 34 32 31 29 29 29 29 28 29
40 40 40 40 40 40 41 43 44 45 46 46 46 46 47 46 48 48 48 49 49 49 49 52 51 51 52 53 54 54 54 54 54 54 55 55 55 54 54 54 55 55 55 56 56 56 56 56 55 55 55 55 55 55 54 54 54 53 53 53 53 52 50 48 47 47 47 45 44 39 37 35 32 32 31 30 29 29 30 31 31 28 28 28 28
39 39 40 40 39 40 41 42 43 42 42 42 42 43 43 43 44 45 46 48 50 49 48 49 49 50 51 51 52 51 53 54 54 54 53 53 54 55 55 55 55 55 55 55 55 55 55 55 55 55 54 48 48 49 50 50 54 53 53 53 52 51 49 48 48 47 45 45 43 38 36 34 34 32 31 30 31 34 30 30 31 31 29 28 27
38 38 38 38 39 40 41 41 41 41 41 40 40 40 41 41 42 42 43 44 44 46 45 45 46 48 49 50 51 52 53 54 49 48 48 53 53 55 54 54 54 54 54 54 54 54 54 55 54 47 45 44 44 45 46 46 47 52 54 53 51 49 47 46 46 46 46 44 43 39 37 36 34 33 33 32 33 33 31 30 31 30 28 27 28
37 37 37 37 38 39 40 39 39 39 39 40 40 39 40 40 40 41 40 41 42 42 42 44 45 46 47 49 51 52 53 54 48 49 49 47 51 54 54 54 54 54 54 54 54 53 53 54 54 49 45 44 44 44 45 45 46 46 47 47 48 51 47 45 45 45 44 43 44 40 40 39 37 34 35 35 32 33 33 31 31 30 28 27 27
37 37 37 38 38 38 38 38 38 37 37 37 37 37 37 38 38 38 39 39 40 39 41 42 43 44 46 46 48 49 50 47 48 48 48 48 47 51 54 55 54 54 54 54 54 54 54 53 53 53 53 51 51 49 45 44 44 45 45 45 45 46 47 47 46 43 42 43 42 41 41 41 39 34 34 33 32 32 32 31 31 31 30 29 30
37 38 37 37 37 38 38 38 37 37 36 37 36 36 36 36 36 36 37 37 36 38 39 40 41 41 42 44 45 46 47 46 47 46 46 46 47 48 53 54 54 54 54 54 54 53 52 51 51 52 53 44 44 50 51 48 43 43 44 43 44 44 46 46 46 48 46 44 43 42 42 42 39 36 35 34 34 32 32 31 31 31 31 30 30
37 37 37 37 37 37 37 36 36 36 36 35 35 35 35 36 36 36 36 35 35 37 36 37 38 39 40 41 42 43 44 43 45 45 45 45 45 46 50 52 53 53 53 53 53 53 52 50 49 50 49 48 47 47 48 48 48 46 45 45 46 44 42 43 43 42 43 46 44 43 43 43 42 39 36 35 33 33 32 32 31 31 31 31 31
36 36 36 36 36 35 36 35 35 35 35 34 34 34 35 36 35 36 36 36 36 37 36 36 37 37 37 38 40 41 42 42 43 44 44 45 45 44 49 50 51 52 52 52 52 52 51 50 49 49 48 47 47 46 47 47 47 46 45 44 44 44 44 44 44 45 44 46 45 45 45 43 44 42 36 35 35 35 34 34 33 32 31 28 27
37 36 36 35 35 35 35 34 34 33 34 34 34 34 33 34 35 35 35 34 35 34 35 35 36 36 36 37 38 39 39 40 41 42 43 44 44 45 47 48 49 50 50 51 51 50 49 49 49 48 47 46 43 43 44 45 45 42 41 42 42 42 42 41 42 44 45 45 46 45 45 44 42 41 36 35 35 35 33 32 32 31 30 29 28
35 35 35 34 34 35 35 35 34 34 34 34 35 34 34 35 34 34 35 34 34 34 35 35 36 36 36 36 36 38 38 38 40 41 41 42 43 45 46 46 47 48 49 48 49 49 48 47 47 48 46 46 43 44 44 43 45 41 41 41 41 40 40 40 41 41 42 42 42 42 42 42 42 41 38 37 35 35 33 32 32 31 30 30 29
32 33 34 34 34 34 34 33 33 33 33 34 34 34 34 34 33 33 34 35 35 35 35 36 36 35 35 36 36 37 38 37 39 40 40 41 41 43 44 45 45 44 45 45 46 47 46 41 41 46 46 46 44 43 43 41 42 41 40 39 39 38 38 38 39 39 39 39 39 39 40 40 40 40 39 38 37 35 34 34 33 32 32 32 31
32 32 32 34 34 34 34 34 34 33 33 33 33 33 33 33 33 33 33 34 34 35 35 35 35 35 34 35 35 36 37 37 38 39 40 40 39 42 42 43 42 43 43 44 45 45 45 41 39 41 45 45 44 44 43 42 43 41 41 40 39 38 40 39 38 37 37 37 37 36 36 36 38 39 37 37 36 35 37 36 33 32 33 32 32
32 32 32 32 33 34 34 33 33 33 33 33 33 33 33 33 33 33 33 33 34 34 34 34 34 35 35 34 35 35 36 36 36 38 39 40 40 40 41 41 40 41 42 42 43 43 43 43 41 41 42 43 44 44 43 42 43 42 41 40 40 40 40 37 37 38 38 38 38 38 38 36 35 36 35 36 36 35 35 35 33 33 34 33 32
31 31 31 32 33 33 33 32 33 32 32 33 33 33 33 33 33 33 33 33 33 34 33 33 34 34 34 34 34 34 35 35 35 37 39 39 40 40 39 40 41 41 40 40 41 41 42 42 43 41 41 42 42 43 43 42 41 41 41 41 42 41 38 38 36 36 38 37 37 35 35 33 33 33 34 35 35 34 34 34 33 33 34 33 32
30 30 31 32 32 32 32 33 32 32 32 32 32 32 32 32 32 32 33 33 33 33 33 33 33 34 34 34 34 34 34 34 35 36 37 38 39 40 39 39 39 40 39 40 41 42 42 43 42 40 40 41 41 42 42 42 41 40 41 42 42 41 38 38 38 37 37 36 36 34 33 33 32 32 33 33 34 33 33 32 32 32 32 32 33
30 30 30 31 31 32 32 32 32 32 32 32 32 32 32 31 31 30 31 32 32 32 33 33 33 34 34 34 34 34 34 34 34 35 36 37 38 39 39 39 39 39 39 39 40 41 42 43 42 39 39 39 40 41 42 42 41 40 41 41 41 40 38 38 37 36 36 36 35 34 33 33 33 32 32 32 32 32 32 31 30 28 25 24 24
30 30 29 29 31 31 32 32 32 32 31 32 31 31 32 32 31 31 31 31 32 32 33 32 33 33 33 33 34 33 34 34 34 34 35 36 38 39 39 39 39 38 38 39 40 41 42 42 41 40 39 39 40 40 41 40 39 40 40 40 40 39 38 37 36 36 35 35 34 34 34 33 33 32 32 32 32 32 30 27 25 24 23 22 24
30 29 29 30 30 31 31 31 31 31 32 31 31 32 31 31 32 31 29 31 31 32 32 32 32 33 33 33 33 34 33 33 34 34 34 35 37 38 38 38 39 39 38 38 38 39 39 39 39 39 39 39 39 39 39 39 39 40 39 39 37 38 38 37 37 36 35 35 35 35 34 33 33 33 32 32 30 27 24 24 23 22 22 21 20
29 29 29 29 31 31 31 31 31 32 32 32 31 32 32 32 32 32 30 31 31 32 32 32 32 32 32 33 33 33 33 33 33 33 33 34 34 36 37 37 36 36 36 37 37 37 38 38 38 38 38 38 38 38 37 37 38 38 37 37 38 37 37 37 36 36 36 36 35 35 35 33 32 32 31 29 27 25 23 22 21 21 21 19 18
29 30 31 31 30 31 31 32 32 32 31 32 32 32 32 32 32 32 32 32 32 32 32 32 32 32 32 32 32 33 33 33 33 33 32 33 33 34 34 35 35 35 35 36 36 36 36 36 37 38 38 37 36 37 37 36 36 37 37 37 37 37 37 36 36 36 36 36 35 35 34 32 30 28 27 27 26 24 23 21 21 20 20 20 18
28 28 30 30 31 30 31 31 32 32 32 32 32 32 32 32 32 32 32 32 32 32 32 32 32 32 32 32 32 32 33 33 32 33 33 32 33 32 34 35 35 36 36 36 36 36 37 36 36 37 37 37 36 36 36 36 36 36 37 36 37 36 35 35 35 35 36 36 35 34 31 30 29 28 27 27 26 23 22 22 21 21 20 19 16
27 27 28 28 29 30 30 31 31 31 31 32 32 32 32 32 32 32 32 32 32 32 32 32 32 32 32 32 32 32 32 32 32 33 32 34 32 33 32 33 34 35 35 37 36 36 36 36 36 36 36 36 35 36 36 36 35 36 35 36 36 35 35 35 35 35 35 34 34 32 30 29 28 28 27 26 24 22 22 22 22 21 20 19 17
27 28 28 28 28 29 29 30 30 31 31 31 32 32 32 32 33 32 32 31 32 33 33 32 32 32 32 32 32 32 32 32 34 34 34 35 35 35 35 36 36 35 35 36 36 36 36 36 36 36 35 35 36 36 36 36 36 35 35 35 35 35 35 35 35 35 34 34 34 30 29 28 27 26 26 25 23 22 21 22 21 21 19 17 16
28 28 28 27 29 29 29 29 30 30 30 31 31 31 31 32 32 33 32 32 32 32 33 33 33 33 33 32 33 33 33 34 34 34 34 34 35 35 35 36 36 36 37 35 36 35 36 36 36 36 36 36 36 36 36 36 35 35 35 34 34 34 34 34 34 34 33 33 32 30 29 28 27 26 25 24 22 21 21 22 22 21 19 18 16
29 29 28 28 29 28 29 29 29 30 30 30 30 31 31 31 31 31 32 32 32 32 33 33 33 33 33 33 33 33 33 34 34 34 34 34 34 35 35 36 36 37 37 37 36 36 36 36 36 36 36 35 35 36 36 36 36 35 35 34 34 34 34 34 34 33 33 33 31 29 29 28 28 26 26 24 22 21 21 20 21 20 19 18 16
28 28 28 28 28 28 29 29 29 29 30 30 30 30 30 30 30 30 31 31 32 32 32 33 33 33 33 33 33 33 33 33 34 34 34 34 34 34 35 35 36 37 37 36 35 35 36 36 36 36 35 35 35 35 36 36 36 35 35 35 34 34 33 33 33 33 33 33 31 30 29 28 28 26 25 23 22 21 21 20 20 20 19 19 17
27 28 28 28 28 28 29 29 29 29 29 30 30 30 30 29 30 30 30 30 30 30 31 32 32 32 33 33 33 33 33 33 33 33 33 34 34 34 35 34 35 36 36 35 35 35 35 35 35 35 35 35 35 35 35 35 35 35 35 35 34 34 33 33 32 32 32 32 31 30 29 28 27 26 24 23 22 22 20 20 20 20 20 19 17
27 28 29 29 29 29 29 29 29 29 29 29 29 29 29 29 29 29 29 29 29 29 29 30 31 32 32 32 33 33 33 33 33 33 34 34 34 35 35 34 34 34 35 35 35 35 35 35 35 35 35 35 35 35 35 35 35 35 35 34 34 34 32 32 32 32 32 32 31 30 29 28 27 26 24 23 22 21 20 20 20 20 19 19 18
27 27 27 28 28 28 29 29 29 28 28 28 28 28 28 29 29 29 29 29 29 29 29 30 31 30 31 32 32 32 33 33 33 34 34 34 34 35 33 33 34 34 34 34 35 35 35 35 35 35 35 35 35 35 35 35 35 35 35 35 34 33 32 32 31 31 31 31 30 30 28 28 27 26 24 23 23 21 20 20 20 19 19 19 17
27 27 27 27 28 28 28 28 28 28 27 28 27 27 28 28 28 28 29 29 29 29 30 30 31 31 31 32 32 32 32 33 33 33 33 34 34 34 34 34 34 34 34 34 34 34 34 35 35 35 35 35 35 35 35 35 35 35 34 34 34 33 33 32 31 30 30 30 30 29 28 27 26 25 24 23 22 22 21 20 20 19 18 18 17
25 25 26 26 26 26 26 26 26 26 26 26 26 27 27 27 28 28 28 29 29 29 29 30 30 30 30 31 31 32 32 32 32 32 32 33 33 33 34 34 34 34 34 34 34 34 34 34 34 34 34 35 35 35 35 35 35 35 34 34 34 33 32 31 30 30 30 30 29 28 27 27 26 24 23 23 21 20 19 19 19 18 18 17 16
22 24 24 25 24 24 24 24 24 24 24 25 26 26 27 27 27 28 28 28 29 29 29 30 30 30 31 31 32 30 30 31 31 32 33 33 33 33 33 34 34 34 34 34 34 34 34 34 34 34 34 34 35 35 35 35 35 35 34 34 33 33 32 31 30 30 29 29 29 28 27 26 25 24 23 23 21 20 20 19 19 18 17 16 16
21 21 21 22 22 22 23 23 24 24 24 25 25 26 26 26 27 27 28 28 28 29 29 30 30 30 31 31 31 31 31 32 32 32 32 33 33 33 33 33 33 33 34 34 34 34 34 34 34 34 34 34 34 35 35 35 35 35 34 34 33 32 32 31 30 29 29 28 28 27 26 25 24 23 22 22 21 20 19 19 18 18 17 16 16
19 19 20 20 21 20 21 20 21 22 22 22 23 23 24 24 26 27 28 28 28 29 29 30 30 30 31 31 31 31 32 32 32 32 32 32 33 33 33 33 33 33 34 34 34 34 34 34 34 34 34 34 34 34 34 34 34 34 34 33 33 32 31 31 30 29 28 28 27 26 25 25 23 22 21 20 20 19 18 18 18 17 17 16 15
17 17 17 18 18 18 18 18 19 20 20 21 20 21 21 22 25 26 27 27 28 29 29 29 30 30 31 31 32 32 32 32 32 32 32 32 33 33 33 33 33 34 34 34 34 34 34 34 34 34 34 34 34 34 34 34 34 34 33 33 32 32 31 30 29 29 28 27 26 25 24 23 23 22 21 21 19 18 18 17 17 16 16 15 14
13 13 13 14 13 14 14 15 16 16 17 18 19 20 21 23 24 25 25 27 28 28 29 29 29 30 31 31 31 32 32 32 30 32 32 32 32 33 33 33 33 33 34 34 34 34 34 34 34 34 34 34 34 34 34 34 34 33 33 33 32 32 31 30 29 28 28 27 25 25 24 23 22 21 20 19 19 18 17 17 16 16 15 15 14
10 10 10 11 11 12 13 14 14 15 16 18 20 21 21 22 23 24 25 25 26 27 28 28 29 29 29 30 31 31 31 31 31 32 32 32 32 32 33 33 33 33 33 34 34 34 34 34 34 34 34 34 34 34 34 34 33 33 33 33 32 31 31 30 29 28 27 26 25 24 23 22 21 21 20 19 18 17 17 16 16 15 15 14 13
7 8 9 9 10 11 11 12 13 14 16 16 17 18 19 20 21 23 24 25 25 26 27 28 28 29 29 29 30 30 31 31 31 31 32 32 32 32 32 33 33 33 33 33 33 34 34 34 34 34 34 34 34 34 33 33 33 33 33 32 32 31 31 30 29 28 27 26 25 23 22 21 21 20 19 19 18 17 16 16 15 15 15 14 12
8 9 9 9 10 11 11 12 13 13 14 15 15 17 18 19 20 21 21 22 24 25 26 27 28 29 29 29 29 30 30 30 31 31 31 31 31 32 32 32 32 33 33 33 33 33 33 34 34 34 33 33 33 33 33 32 32 32 32 32 32 32 31 31 30 28 27 27 25 23 22 21 21 20 19 18 17 17 16 16 15 15 14 13 12
8 8 7 8 8 9 10 10 11 12 12 13 14 15 15 16 17 19 21 22 23 25 25 25 25 26 26 26 27 27 28 28 28 29 30 30 31 31 32 32 32 32 32 32 33 33 33 33 33 33 33 33 33 32 32 31 31 31 31 31 31 31 30 29 29 28 27 26 25 23 22 21 20 19 18 18 17 17 16 15 15 15 14 13 12
3 3 4 5 6 6 7 8 9 10 11 12 12 14 15 16 17 18 19 21 22 23 24 24 25 25 25 25 26 26 26 27 28 28 29 29 30 30 31 31 31 31 32 32 32 32 31 32 32 32 31 31 30 30 30 30 30 30 30 30 30 30 28 25 27 27 26 25 24 23 22 21 20 19 18 18 17 16 15 15 14 14 13 12 11
2 2 3 4 5 6 7 7 9 9 10 10 11 12 14 16 18 19 18 17 17 17 18 19 20 21 23 24 25 25 25 25 26 27 27 28 28 29 29 29 27 28 28 28 27 25 24 24 24 25 26 26 26 27 27 27 27 27 28 28 26 23 22 23 24 25 23 24 23 22 22 21 20 18 18 17 17 16 15 15 14 13 12 12 11
2 3 4 5 6 7 8 9 9 10 11 12 13 14 14 14 14 16 17 18 19 20 20 21 21 22 22 22 23 23 23 23 24 24 24 24 23 22 22 22 22 22 21 20 19 18 19 19 20 19 19 20 20 20 21 22 23 23 23 23 20 21 22 23 23 21 22 22 22 21 21 20 19 18 17 17 16 15 14 14 13 12 12 11 10
4 5 6 6 7 8 8 9 9 9 9 10 9 10 10 10 10 11 12 13 14 15 16 16 16 17 17 17 18 18 18 18 18 18 18 18 18 18 19 19 18 17 16 16 15 15 15 16 16 16 15 15 14 14 15 15 17 19 19 19 19 19 20 19 21 19 20 19 21 20 19 18 18 17 16 16 15 14 13 13 12 12 11 10 10